Weather History for KBMG - June, 2012

Change the Weather History Date:

Saturday, June 23, 2012

  Actual Average Record
Temperature  
Mean Temperature 71 °F 73 °F  
Max Temperature 89 °F 84 °F 91 °F (1997)
Min Temperature 52 °F 62 °F 51 °F (2004)
Degree Days  
Heating Degree Days 0 0  
Month to date heating degree days 22 13  
Since 1 June heating degree days 22 13  
Since 1 July heating degree days 4158 5264  
Cooling Degree Days 6 8  
Month to date cooling degree days 148 147  
Year to date cooling degree days 349 229  
Since 1 June cooling degree days 148 147  
Growing Degree Days 20 (Base 50)    
Moisture  
Dew Point 51 °F    
Average Humidity 58    
Maximum Humidity 93    
Minimum Humidity 22    
Precipitation  
Precipitation 0.00 in 0.17 in 0.91 in (2007)
Month to date precipitation 0.20 3.67  
Year to date precipitation 11.95 23.56  
Sea Level Pressure  
Sea Level Pressure 29.99 in    
Wind  
Wind Speed 3 mph (ENE)    
Max Wind Speed 13 mph    
Max Gust Speed 18 mph    
Visibility 10 miles    
Events      
T = Trace of Precipitation, MM = Missing Value Source: NWS Daily Summary

Daily Weather History Graph

Daily Weather History Graph

Search for Another Location

Airport or City:

Trip Planner

Search our weather history database for the weather conditions in past years. The results will help you decide how hot, cold, wet, or windy it might be!

Date:

Astronomy

Jun. 23, 2012 Rise Set
Actual Time 6:21 AM EDT 9:16 PM EDT
Civil Twilight 5:48 AM EDT 9:48 PM EDT
Nautical Twilight 5:08 AM EDT 10:29 PM EDT
Astronomical Twilight 4:21 AM EDT 11:16 PM EDT
Moon 10:20 AM EDT (6/23) 11:46 PM EDT (6/23)
Length of Visible Light 15h 59m
Length of Day
14h 55m
Waxing Crescent, 16% of the Moon is Illuminated
Jun 23
Waxing Crescent
Jun 26
First Quarter
Jul 3
Full
Jul 10
Last Quarter
Jul 19
New

Hourly Weather History & Observations

Time (EDT) Temp. Dew Point Humidity Pressure Visibility Wind Dir Wind Speed Gust Speed Precip Events Conditions
12:53 AM 64.9 °F 54.0 °F 68% 29.97 in 10.0 mi NNW 3.5 mph - N/A   Clear
1:53 AM 59.0 °F 54.0 °F 83% 29.97 in 10.0 mi Calm Calm - N/A   Clear
3:53 AM 54.0 °F 51.1 °F 90% 29.98 in 10.0 mi Calm Calm - N/A   Clear
4:53 AM 54.0 °F 52.0 °F 93% 29.99 in 10.0 mi Calm Calm - N/A   Clear
5:53 AM 53.1 °F 50.0 °F 89% 29.99 in 10.0 mi Calm Calm - N/A   Clear
6:53 AM 55.0 °F 51.1 °F 86% 30.00 in 10.0 mi Calm Calm - N/A   Clear
7:53 AM 64.9 °F 55.9 °F 73% 30.00 in 10.0 mi Calm Calm - N/A   Clear
8:53 AM 72.0 °F 53.1 °F 51% 30.01 in 10.0 mi ENE 4.6 mph - N/A   Clear
9:53 AM 78.1 °F 53.1 °F 42% 30.02 in 10.0 mi ENE 4.6 mph - N/A   Clear
10:53 AM 80.1 °F 51.1 °F 36% 30.02 in 10.0 mi NE 5.8 mph - N/A   Clear
11:53 AM 82.0 °F 48.9 °F 31% 30.02 in 10.0 mi East 4.6 mph - N/A   Clear
12:53 PM 84.0 °F 46.0 °F 26% 30.03 in 10.0 mi NNE 5.8 mph - N/A   Clear
2:53 PM 88.0 °F 46.9 °F 24% 30.00 in 10.0 mi ENE 9.2 mph 16.1 mph N/A   Clear
3:53 PM 88.0 °F 45.0 °F 22% 29.99 in 10.0 mi NNE 9.2 mph - N/A   Clear
4:53 PM 88.0 °F 46.0 °F 23% 29.99 in 10.0 mi South 6.9 mph - N/A   Clear
5:53 PM 87.1 °F 45.0 °F 23% 29.98 in 10.0 mi East 9.2 mph - N/A   Clear
6:53 PM 87.1 °F 46.0 °F 24% 29.96 in 10.0 mi SSE 5.8 mph - N/A   Clear
7:53 PM 84.0 °F 48.9 °F 29% 29.97 in 10.0 mi SE 3.5 mph - N/A   Clear
8:53 PM 81.0 °F 52.0 °F 36% 29.97 in 10.0 mi Calm Calm - N/A   Clear
10:53 PM 72.0 °F 57.9 °F 61% 29.99 in 10.0 mi Calm Calm - N/A   Partly Cloudy
11:53 PM 70.0 °F 60.1 °F 71% 30.01 in 10.0 mi Calm Calm - N/A   Clear